Snowfall_Accumulation
0.0 0.0 0.0 0.0 0.0 0.0 0.0 0.0 0.0 0.0 0.0 0.0 0.0 0.0 0.0 0.0 0.0 0.0 0.0 0.0 0.0 0.0 0.0 0.0 0.0 0.0 0.0 0.0 0.0 0.0 0.0 0.0 0.0 0.0 0.0 0.0 0.0 0.0 0.0 0.0 0.0 0.0 0.0 0.0
0.0 0.0 0.0 0.0 0.0 0.0 0.0 0.0 0.0 0.0 0.0 0.0 0.0 0.0 0.0 0.0 0.0 0.0 0.0 0.0 0.0 0.0 0.0 0.0 0.0 0.0 0.0 0.0 0.0 0.0 0.0 0.0 0.0 0.0 0.0 0.0 0.0 0.0 0.0 0.0 0.0 0.0 0.0 0.0
0.0 0.0 0.0 0.0 0.0 0.0 0.0 0.0 0.0 0.0 0.0 0.0 0.0 0.0 0.0 0.0 0.0 0.0 0.0 0.0 0.0 0.0 0.0 0.0 0.0 0.0 0.0 0.0 0.0 0.0 0.0 0.0 0.0 0.0 0.0 0.0 0.0 0.0 0.0 0.0 0.0 0.0 0.0 0.0
0.0 0.0 0.0 0.0 0.0 0.0 0.0 0.0 0.0 0.0 0.0 0.0 0.0 0.0 0.0 0.0 0.0 0.0 0.0 0.0 0.0 0.0 0.0 0.0 0.0 0.0 0.0 0.0 0.0 0.0 0.0 0.0 0.0 0.0 0.0 0.0 0.0 0.0 0.0 0.0 0.0 0.0 0.0 0.0
0.0 0.0 0.0 0.0 0.0 0.0 0.0 0.0 0.0 0.0 0.0 0.0 0.0 0.0 0.0 0.0 0.0 0.0 0.0 0.0 0.0 0.0 0.0 0.0 0.0 0.0 0.0 0.0 0.0 0.0 0.0 0.0 0.0 0.0 0.0 0.0 0.0 0.0 0.0 0.0 0.0 0.0 0.0 0.0
0.0 0.0 0.0 0.0 0.0 0.0 0.0 0.0 0.0 0.0 0.0 0.0 0.0 0.0 0.0 0.0 0.0 0.0 0.0 0.0 0.0 0.0 0.0 0.0 0.0 0.0 0.0 0.0 0.0 0.0 0.0 0.0 0.0 0.0 0.0 0.0 0.0 0.0 0.0 0.0 0.0 0.0 0.0 0.0
0.0 0.0 0.0 0.0 0.0 0.0 0.0 0.0 0.0 0.0 0.0 0.0 0.0 0.0 0.0 0.0 0.0 0.0 0.0 0.0 0.0 0.0 0.0 0.0 0.0 0.0 0.0 0.0 0.0 0.0 0.0 0.0 0.0 0.0 0.0 0.0 0.0 0.0 0.0 0.0 0.0 0.0 0.0 0.0
0.0 0.0 0.0 0.0 0.0 0.0 0.0 0.0 0.0 0.0 0.0 0.0 0.0 0.0 0.0 0.0 0.0 0.0 0.0 0.0 0.0 0.0 0.0 0.0 0.0 0.0 0.0 0.0 0.0 0.0 0.0 0.0 0.0 0.0 0.0 0.0 0.0 0.0 0.0 0.0 0.0 0.0 0.0 0.0
0.0 0.0 0.0 0.0 0.0 0.0 0.0 0.0 0.0 0.0 0.0 0.0 0.0 0.0 0.0 0.0 0.0 0.0 0.0 0.0 0.0 0.0 0.0 0.0 0.0 0.0 0.0 0.0 0.0 0.0 0.0 0.0 0.0 0.0 0.0 0.0 0.0 0.0 0.0 0.0 0.0 0.0 0.0 0.0
0.0 0.0 0.0 0.0 0.0 0.0 0.0 0.0 0.0 0.0 0.0 0.0 0.0 0.0 0.0 0.0 0.0 0.0 0.0 0.0 0.0 0.0 0.0 0.0 0.0 0.0 0.0 0.0 0.0 0.0 0.0 0.0 0.0 0.0 0.0 0.0 0.0 0.0 0.0 0.0 0.0 0.0 0.0 0.0
0.0 0.0 0.0 0.0 0.0 0.0 0.0 0.0 0.0 0.0 0.0 0.0 0.1 0.0 0.0 0.0 0.0 0.0 0.0 0.0 0.0 0.0 0.0 0.0 0.0 0.0 0.0 0.0 0.0 0.0 0.0 0.0 0.0 0.0 0.0 0.0 0.0 0.0 0.0 0.0 0.0 0.0 0.0 0.0
0.0 0.0 0.0 0.0 0.0 0.0 0.0 0.0 0.0 0.0 0.0 0.0 0.0 0.0 0.0 0.0 0.0 0.0 0.0 0.0 0.0 0.0 0.0 0.0 0.0 0.0 0.0 0.0 0.0 0.0 0.0 0.0 0.0 0.1 0.0 0.0 0.0 0.0 0.0 0.0 0.0 0.0 0.0 0.0
0.0 0.0 0.0 0.0 0.0 0.0 0.0 0.0 0.0 0.0 0.0 1.3 1.4 0.2 0.0 0.0 0.0 0.0 0.0 0.0 0.0 0.4 0.4 0.2 0.6 0.5 1.0 1.0 0.9 0.7 1.1 1.1 0.9 0.7 0.7 0.6 0.5 0.4 0.3 0.3 0.2 0.1 0.1 0.0
0.0 0.0 0.0 0.0 0.0 0.0 0.0 0.0 0.0 0.0 2.0 0.9 0.1 0.0 0.0 0.0 0.0 0.0 0.0 0.4 0.9 0.9 0.9 0.7 1.3 1.3 1.7 1.9 1.9 1.9 1.7 1.3 0.9 0.7 0.7 0.6 0.6 0.5 0.4 0.3 0.3 0.2 0.2 0.1
0.0 0.3 0.0 0.0 0.0 0.0 0.0 0.0 0.0 0.3 0.0 1.4 0.2 0.0 0.0 0.2 0.4 0.4 0.8 1.0 1.2 1.7 1.9 2.0 2.3 2.2 2.3 2.1 1.7 1.3 0.9 0.8 0.7 0.7 0.7 0.7 0.6 0.5 0.5 0.4 0.4 0.3 0.1 0.0
0.0 0.3 0.0 0.1 0.0 0.0 0.0 0.0 0.0 0.0 0.0 0.0 0.0 0.0 0.4 0.5 0.5 0.7 1.0 1.4 1.8 2.7 3.2 3.3 3.0 2.4 2.0 1.7 1.4 1.1 1.0 0.7 0.6 0.5 0.5 0.4 0.3 0.2 0.1 0.1 0.0 0.0 0.0 0.1
0.0 0.5 1.4 2.6 0.0 0.0 1.5 0.0 0.0 0.0 0.0 0.0 0.0 0.0 0.0 0.4 0.7 1.3 1.9 2.8 3.5 3.8 3.6 3.0 2.5 2.0 1.8 1.5 1.3 1.2 0.8 0.6 0.3 0.2 0.1 0.0 0.0 0.0 0.0 0.0 0.0 0.1 0.1 0.0
0.0 0.4 2.6 4.1 0.9 5.0 0.2 0.0 0.0 0.0 0.0 0.1 0.0 0.3 0.8 1.0 1.9 2.8 3.8 4.1 4.4 3.6 2.9 2.4 2.1 1.8 1.7 1.4 1.1 0.6 0.3 0.1 0.0 0.0 0.0 0.0 0.0 0.0 0.0 0.0 0.0 0.0 0.0 0.0
0.0 0.0 2.7 7.2 4.9 0.7 0.6 0.7 0.7 0.9 0.7 0.8 0.8 1.9 3.0 3.4 3.4 5.1 4.8 4.0 3.7 3.4 3.2 2.9 2.2 1.7 1.5 1.1 0.7 0.2 0.1 0.0 0.0 0.0 0.0 0.0 0.0 0.0 0.0 0.0 0.0 0.0 0.0 0.0
0.0 0.4 2.8 5.3 7.9 5.1 2.9 1.8 2.1 2.5 3.1 3.1 4.0 5.7 6.8 6.8 6.7 6.3 5.7 4.2 3.6 2.9 2.4 2.1 1.6 1.2 0.9 0.4 0.2 0.0 0.0 0.0 0.0 0.0 0.0 0.0 0.0 0.0 0.0 0.0 0.0 0.0 0.0 0.0
0.5 0.8 2.4 5.3 8.9 12.4 10.1 6.8 5.8 7.3 6.4 4.2 3.7 5.1 4.5 4.1 3.8 3.6 2.9 2.5 2.0 1.6 1.3 1.1 0.7 0.4 0.1 0.0 0.0 0.0 0.0 0.0 0.0 0.0 0.0 0.0 0.0 0.0 0.0 0.0 0.0 0.0 0.0 0.0
3.5 3.3 2.8 2.9 4.7 9.6 7.4 6.0 7.3 10.6 8.4 6.1 4.5 3.6 2.8 2.6 2.4 2.3 2.1 1.8 1.4 1.0 0.5 0.2 0.0 0.0 0.0 0.0 0.0 0.0 0.0 0.0 0.0 0.0 0.0 0.0 0.0 0.0 0.0 0.0 0.0 0.0 0.0 0.0
3.9 6.8 8.0 9.7 11.5 10.2 7.3 7.0 7.8 6.7 6.0 5.4 4.4 3.7 3.1 2.6 2.2 1.7 1.2 0.7 0.3 0.0 0.0 0.0 0.0 0.0 0.0 0.0 0.0 0.0 0.0 0.0 0.0 0.0 0.0 0.0 0.0 0.0 0.0 0.0 0.0 0.0 0.0 0.0
2.6 3.7 5.5 4.7 4.6 4.5 5.7 5.9 5.6 4.9 4.6 4.0 3.3 2.7 2.0 1.6 1.1 0.4 0.0 0.0 0.0 0.0 0.0 0.0 0.0 0.0 0.0 0.0 0.0 0.0 0.0 0.0 0.0 0.0 0.0 0.0 0.0 0.0 0.0 0.0 0.0 0.0 0.0 0.0
4.2 1.5 3.1 3.6 4.0 5.7 5.8 5.3 4.6 3.7 2.9 2.4 1.9 1.3 0.8 0.3 0.1 0.0 0.0 0.0 0.0 0.0 0.0 0.0 0.0 0.0 0.0 0.0 0.0 0.0 0.0 0.0 0.0 0.0 0.0 0.0 0.0 0.0 0.0 0.0 0.0 0.0 0.0 0.0
5.4 6.1 6.9 7.0 6.4 5.5 4.6 4.0 3.2 2.7 2.2 0.8 0.0 0.0 0.0 0.0 0.0 0.0 0.0 0.0 0.0 0.0 0.0 0.0 0.0 0.0 0.0 0.0 0.0 0.0 0.0 0.0 0.0 0.0 0.0 0.0 0.0 0.0 0.0 0.0 0.0 0.0 0.0 0.2